Location: Buchberg
(46.9333°N, 15.8500°E)
Time: 19:10:36
(UTC+00:00)

SL-27 R/B - Pass Details

Date: 14 July 2020
Orbit: 420 x 470 km, 74.7° (Epoch: 05 August)

Event Time Altitude Azimuth Distance (km) Brightness Sun altitude
Exits shadow 02:20:45 - 185° (S) 2,022 5.3 -8.2°
Reaches altitude 10° 02:21:49 10° 181° (S) 1,589 4.8 -8.1°
Maximum altitude 02:25:11 48° 106° (ESE) 599 3.3 -7.7°
Drops below altitude 10° 02:28:32 10° 32° (NNE) 1,576 6.7 -7.2°
Sets 02:30:39 0° 26° (NNE) 2,442 7.6 -7.0°
